GW5351 Weather Reports


time (UTC)temp
F
wind
direction
speed
knots
gust
knots
rain 1hr
in
rain 24hr
in
rain mn
in
humidity
%
barometer
mb
20260508060441 67 243 0.0 0.9 0.00 0.00 0.00 82 1014.5
20260508055936 67 253 0.9 1.7 0.00 0.00 0.00 82 1014.4
20260508055434 67 349 1.7 1.7 0.00 0.00 0.00 82 1014.3
20260508054929 67 334 1.7 1.7 0.00 0.00 0.00 81 1014.4
20260508054427 67 221 0.0 0.9 0.00 0.00 0.00 81 1014.8
20260508053924 67 260 0.9 0.9 0.00 0.00 0.00 80 1014.8
20260508053421 67 271 0.9 2.6 0.00 0.00 0.00 80 1014.9
20260508052919 67 159 0.0 0.9 0.00 0.00 0.00 80 1014.5
20260508052416 67 155 0.9 1.7 0.00 0.00 0.00 80 1014.1
20260508051912 68 155 0.9 2.6 0.00 0.00 0.00 80 1014.2
20260508051408 68 155 1.7 2.6 0.00 0.00 0.00 80 1014.3
20260508050904 68 156 0.0 0.9 0.00 0.00 0.00 79 1014.7
20260508050401 68 156 0.0 0.9 0.00 0.00 0.00 79 1014.6
20260508045857 68 156 0.0 1.7 0.00 0.00 0.00 79 1014.5
20260508045355 68 156 0.0 1.7 0.00 0.00 0.00 79 1014.7
20260508044852 68 160 0.0 0.0 0.00 0.00 0.00 79 1014.7
20260508044349 68 160 0.9 1.7 0.00 0.00 0.00 78 1014.7
20260508043845 68 173 0.0 2.6 0.00 0.00 0.00 78 1014.5
20260508043342 68 213 0.0 1.7 0.00 0.00 0.00 78 1014.6
20260508042838 68 265 0.9 1.7 0.00 0.00 0.00 78 1014.6
20260508042337 68 236 0.0 1.7 0.00 0.00 0.00 78 1014.7
20260508041833 68 211 0.0 1.7 0.00 0.00 0.00 78 1014.7
20260508041329 68 305 2.6 3.5 0.00 0.00 0.00 77 1014.7
20260508040826 68 214 0.0 2.6 0.00 0.00 0.00 78 1014.8
20260508040324 68 203 0.0 1.7 0.00 0.00 0.00 77 1014.9
20260508035820 68 154 0.0 0.9 0.00 0.00 0.00 77 1014.8
20260508035318 68 154 0.0 1.7 0.00 0.00 0.00 77 1014.8
20260508034814 68 149 0.9 2.6 0.00 0.00 0.00 77 1014.7
20260508034312 68 156 0.9 1.7 0.00 0.00 0.00 77 1014.5
20260508033809 69 203 0.0 1.7 0.00 0.00 0.00 77 1014.7
20260508033307 68 298 2.6 5.2 0.00 0.00 0.00 76 1014.5
20260508032804 69 218 1.7 3.5 0.00 0.00 0.00 77 1014.3
20260508032305 68 7 1.7 3.5 0.00 0.00 0.00 77 1014.3
20260508031758 69 221 0.0 1.7 0.00 0.00 0.00 78 1014.6
20260508031254 69 190 0.0 0.9 0.00 0.00 0.00 78 1014.6
20260508030751 69 185 0.9 0.9 0.00 0.00 0.00 77 1014.6
20260508030248 69 310 1.7 3.5 0.00 0.00 0.00 78 1014.7
20260508025745 69 193 0.0 0.9 0.00 0.00 0.00 80 1014.7
20260508025242 69 167 0.9 1.7 0.00 0.00 0.00 80 1014.9
20260508024738 69 265 2.6 2.6 0.00 0.00 0.00 81 1015.0
20260508024235 69 338 1.7 2.6 0.00 0.00 0.00 82 1015.0
20260508023732 69 246 0.0 0.9 0.00 0.00 0.00 82 1015.1
20260508023229 69 302 0.9 1.7 0.00 0.00 0.00 83 1015.1
20260508022725 69 259 1.7 1.7 0.00 0.00 0.00 84 1014.9
20260508022222 69 255 0.9 0.9 0.00 0.00 0.00 83 1014.9
20260508021718 69 255 0.9 0.9 0.00 0.00 0.00 82 1014.8
20260508021214 69 254 0.0 0.9 0.00 0.00 0.00 82 1014.7
20260508020711 69 254 0.0 0.9 0.00 0.00 0.00 82 1014.6
20260508020208 69 255 0.0 0.0 0.00 0.00 0.00 82 1014.9
20260508015706 69 255 0.0 0.0 0.00 0.00 0.00 82 1015.3
20260508015203 69 254 0.0 0.0 0.00 0.00 0.00 82 1014.9
20260508014659 70 255 0.9 0.9 0.00 0.00 0.00 81 1014.8
20260508014155 70 238 0.0 0.9 0.00 0.00 0.00 81 1014.9
20260508013652 70 255 0.9 1.7 0.00 0.00 0.00 80 1015.0
20260508013148 70 237 0.0 0.0 0.00 0.00 0.00 80 1015.2
20260508012646 70 237 0.0 0.0 0.00 0.00 0.00 79 1014.9
20260508012143 71 245 0.0 2.6 0.00 0.00 0.00 79 1014.8
20260508011641 71 241 0.0 0.9 0.00 0.00 0.00 78 1014.8
20260508011138 71 241 0.0 0.0 0.00 0.00 0.00 77 1015.0
20260508010635 71 241 0.0 0.0 0.00 0.00 0.00 75 1014.7
20260508010133 72 240 0.9 0.9 0.00 0.00 0.00 74 1014.7
20260508005630 72 239 0.0 0.0 0.00 0.00 0.00 74 1014.6
20260508005126 72 242 0.0 0.9 0.00 0.00 0.00 73 1014.5
20260508004622 73 191 0.0 0.9 0.00 0.00 0.00 72 1014.7
20260508004119 73 217 0.9 1.7 0.00 0.00 0.00 72 1014.4
20260508003615 73 192 0.9 1.7 0.00 0.00 0.00 71 1014.5
20260508003113 73 193 0.0 2.6 0.00 0.00 0.00 71 1014.2
20260508002609 74 237 0.9 1.7 0.00 0.00 0.00 70 1014.4
20260508002107 74 254 0.9 1.7 0.00 0.00 0.00 69 1014.7
20260508001602 74 241 0.9 0.9 0.00 0.00 0.00 70 1014.6
20260508001058 74 269 0.9 2.6 0.00 0.00 0.00 69 1015.0
20260508000554 74 344 1.7 3.5 0.00 0.00 0.00 69 1015.1
20260508000052 74 18 0.9 1.7 0.00 0.00 0.00 69 1014.9
20260507235548 75 292 1.7 5.2 0.00 0.00 0.00 68 1014.8
20260507235046 75 291 0.9 3.5 0.00 0.00 0.00 70 1014.8
20260507234542 75 352 2.6 3.5 0.00 0.00 0.00 69 1014.9
20260507234039 75 301 1.7 2.6 0.00 0.00 0.00 70 1015.1
20260507233535 75 295 0.9 1.7 0.00 0.00 0.00 70 1015.0
20260507233034 75 297 1.7 2.6 0.00 0.00 0.00 68 1014.9
20260507232530 76 285 0.9 3.5 0.00 0.00 0.00 67 1015.0
20260507232028 76 313 2.6 5.2 0.00 0.00 0.00 66 1015.1
20260507231524 76 6 3.5 3.5 0.00 0.00 0.00 66 1014.6
20260507231021 76 221 1.7 3.5 0.00 0.00 0.00 66 1014.8
20260507230518 76 339 3.5 5.2 0.00 0.00 0.00 67 1014.6
20260507230014 76 280 3.5 6.1 0.00 0.00 0.00 67 1014.7
20260507225510 76 239 1.7 2.6 0.00 0.00 0.00 68 1014.8
20260507225007 76 355 3.5 5.2 0.00 0.00 0.00 69 1014.6
20260507224502 76 280 1.7 3.5 0.00 0.00 0.00 70 1014.3
20260507223959 76 347 4.3 6.1 0.00 0.00 0.00 69 1014.3
20260507223454 76 242 0.9 5.2 0.00 0.00 0.00 70 1014.2
20260507222952 76 303 2.6 5.2 0.00 0.00 0.00 69 1014.1
20260507222449 76 247 0.0 5.2 0.00 0.00 0.00 70 1014.2
20260507221945 77 252 1.7 5.2 0.00 0.00 0.00 69 1014.3
20260507221442 77 307 1.7 2.6 0.00 0.00 0.00 69 1014.2
20260507220938 76 279 0.9 5.2 0.00 0.00 0.00 69 1014.3
20260507220436 76 257 0.9 2.6 0.00 0.00 0.00 69 1014.5
20260507215932 76 347 2.6 3.5 0.00 0.00 0.00 68 1014.5
20260507215429 76 272 2.6 7.8 0.00 0.00 0.00 69 1014.5
20260507214926 76 265 0.9 2.6 0.00 0.00 0.00 69 1014.7
20260507214424 76 292 1.7 3.5 0.00 0.00 0.00 69 1014.7
20260507213919 77 354 5.2 6.1 0.00 0.00 0.00 68 1014.7
20260507213416 77 347 1.7 2.6 0.00 0.00 0.00 68 1014.8
20260507212913 76 328 3.5 6.1 0.00 0.00 0.00 69 1014.7
20260507212409 77 302 2.6 2.6 0.00 0.00 0.00 69 1014.6
20260507211906 76 284 0.0 2.6 0.00 0.00 0.00 70 1014.6
20260507211402 76 287 1.7 2.6 0.00 0.00 0.00 70 1014.8
20260507210859 76 254 1.7 5.2 0.00 0.00 0.00 71 1014.8
20260507210356 76 283 2.6 5.2 0.00 0.00 0.00 70 1014.8
20260507205853 76 11 5.2 6.1 0.00 0.00 0.00 70 1015.1
20260507205349 76 213 0.9 3.5 0.00 0.00 0.00 69 1015.1
20260507204846 76 325 3.5 6.1 0.00 0.00 0.00 69 1015.2
20260507204343 77 346 6.1 9.6 0.00 0.00 0.00 67 1015.0
20260507203841 77 265 1.7 3.5 0.00 0.00 0.00 69 1015.2
20260507203339 76 331 3.5 5.2 0.00 0.00 0.00 70 1015.4
20260507202834 75 42 3.5 7.0 0.00 0.00 0.00 70 1015.3
20260507202331 76 31 4.3 6.1 0.00 0.00 0.00 70 1015.1
20260507201826 75 335 0.9 3.5 0.00 0.00 0.00 71 1015.3
20260507201322 75 313 0.9 5.2 0.00 0.00 0.00 71 1015.3
20260507200819 76 177 3.5 6.1 0.00 0.00 0.00 70 1015.5
20260507200315 75 37 3.5 5.2 0.00 0.00 0.00 70 1015.7
20260507195811 76 47 3.5 7.8 0.00 0.00 0.00 69 1015.5
20260507195309 75 219 1.7 5.2 0.00 0.00 0.00 72 1015.7
20260507194806 75 272 1.7 5.2 0.00 0.00 0.00 72 1016.1
20260507194302 75 315 1.7 8.7 0.00 0.00 0.00 73 1015.9
20260507193758 75 357 2.6 3.5 0.00 0.00 0.00 71 1015.7
20260507193255 76 311 2.6 6.1 0.00 0.00 0.00 71 1015.6
20260507192751 75 159 1.7 3.5 0.00 0.00 0.00 72 1015.7
20260507192248 75 5 1.7 3.5 0.00 0.00 0.00 71 1015.8
20260507191744 74 261 2.6 3.5 0.00 0.00 0.00 71 1015.9
20260507191241 73 242 3.5 5.2 0.00 0.00 0.00 73 1016.2
20260507190738 74 314 2.6 6.1 0.00 0.00 0.00 73 1016.3
20260507190237 73 328 4.3 6.1 0.00 0.00 0.00 73 1016.5
20260507185735 73 314 3.5 6.1 0.00 0.00 0.00 72 1016.7
20260507185231 73 346 2.6 3.5 0.00 0.00 0.00 73 1016.9
20260507184729 72 304 1.7 2.6 0.00 0.00 0.00 76 1016.8
20260507184227 72 178 1.7 7.8 0.00 0.00 0.00 75 1016.5
20260507183723 72 6 2.6 5.2 0.00 0.00 0.00 75 1016.6
20260507183220 72 0 3.5 7.0 0.00 0.00 0.00 76 1016.8
20260507182717 72 337 4.3 7.8 0.00 0.00 0.00 75 1016.8
20260507182212 73 231 0.9 3.5 0.00 0.00 0.00 73 1016.8
20260507181709 71 12 0.9 6.1 0.00 0.00 0.00 75 1016.9
20260507181206 72 300 2.6 7.8 0.00 0.00 0.00 75 1016.8
20260507180702 71 343 3.5 6.1 0.00 0.00 0.00 76 1017.0
20260507180159 71 12 4.3 7.0 0.00 0.00 0.00 77 1017.1
20260507175655 70 317 3.5 7.8 0.00 0.00 0.00 78 1017.0
20260507175147 70 314 3.5 7.0 0.00 0.00 0.00 77 1017.1
20260507174644 72 329 2.6 2.6 0.00 0.00 0.00 76 1017.1
20260507174142 69 255 0.0 3.5 0.00 0.00 0.00 79 1017.4
20260507173639 69 279 1.7 6.1 0.00 0.00 0.00 79 1017.7
20260507173136 69 343 2.6 7.8 0.00 0.00 0.00 79 1017.8
20260507172632 69 250 1.7 2.6 0.00 0.00 0.00 79 1017.7
20260507172130 69 245 1.7 2.6 0.00 0.00 0.00 78 1017.9
20260507171629 69 252 0.9 5.2 0.00 0.00 0.00 78 1017.8
20260507171127 69 243 0.9 2.6 0.00 0.00 0.00 79 1017.8
20260507170624 69 241 1.7 3.5 0.00 0.00 0.00 79 1017.6
20260507170121 69 237 0.9 6.1 0.00 0.00 0.00 79 1017.5
20260507165616 69 285 0.9 2.6 0.00 0.00 0.00 78 1017.5
20260507165113 68 287 1.7 3.5 0.00 0.00 0.00 80 1017.7
20260507164609 67 356 2.6 2.6 0.00 0.00 0.00 80 1017.5
20260507164106 67 0 3.5 7.0 0.00 0.00 0.00 81 1017.6
20260507163604 67 332 2.6 7.8 0.00 0.00 0.00 81 1017.4
20260507163102 67 0 6.1 8.7 0.00 0.00 0.00 81 1017.2
20260507162601 67 248 1.7 5.2 0.00 0.00 0.00 81 1017.2
20260507162059 67 342 3.5 3.5 0.00 0.00 0.00 80 1017.1
20260507161555 68 129 2.6 6.1 0.00 0.00 0.00 80 1017.2
20260507161051 67 295 2.6 5.2 0.00 0.00 0.00 81 1017.0
20260507160548 66 217 2.6 5.2 0.00 0.00 0.00 81 1017.0
20260507160044 65 206 1.7 5.2 0.00 0.00 0.00 83 1016.8
20260507155539 65 221 1.7 6.1 0.00 0.00 0.00 83 1017.0
20260507155037 64 287 0.9 7.0 0.00 0.00 0.00 84 1016.8
20260507154534 64 331 5.2 9.6 0.00 0.00 0.00 84 1017.2
20260507154031 65 151 1.7 5.2 0.00 0.00 0.00 83 1017.3
20260507153528 64 5 3.5 9.6 0.00 0.00 0.00 85 1017.2
20260507153024 63 300 2.6 7.8 0.00 0.00 0.00 86 1017.4
20260507152520 64 350 4.3 7.0 0.00 0.00 0.00 85 1017.6
20260507152016 64 354 5.2 8.7 0.00 0.00 0.00 85 1017.4
20260507151513 63 8 5.2 8.7 0.00 0.00 0.00 86 1017.3
20260507151010 63 290 5.2 7.8 0.00 0.00 0.00 87 1017.2
20260507150506 63 337 2.6 7.0 0.00 0.00 0.00 87 1017.3
20260507150003 62 28 2.6 5.2 0.00 0.00 0.00 88 1017.0
20260507145458 62 350 3.5 6.1 0.00 0.00 0.00 88 1016.9
20260507144956 62 349 4.3 8.7 0.00 0.00 0.00 88 1017.0
20260507144452 62 283 1.7 5.2 0.00 0.00 0.00 89 1017.1
20260507143949 62 324 2.6 7.8 0.00 0.00 0.00 89 1017.1
20260507143447 62 336 1.7 7.8 0.00 0.00 0.00 90 1017.2
20260507142943 62 13 3.5 7.0 0.00 0.00 0.00 90 1017.1
20260507142439 62 358 5.2 7.0 0.00 0.00 0.00 91 1017.2
20260507141937 61 6 2.6 7.8 0.00 0.00 0.00 91 1017.0
20260507141432 61 270 1.7 2.6 0.00 0.00 0.00 92 1017.3
20260507140930 61 7 4.3 6.1 0.00 0.00 0.00 92 1017.3
20260507140426 61 334 5.2 7.0 0.00 0.00 0.00 92 1017.1
20260507135924 61 338 1.7 3.5 0.00 0.00 0.00 92 1017.4
20260507135420 61 21 2.6 7.0 0.00 0.00 0.00 91 1017.2
20260507134918 61 330 3.5 5.2 0.00 0.00 0.00 91 1017.3
20260507134414 62 3 1.7 2.6 0.00 0.00 0.00 91 1017.4
20260507133910 61 340 2.6 6.1 0.00 0.00 0.00 91 1017.3
20260507133406 61 320 1.7 7.0 0.00 0.00 0.00 91 1017.4
20260507132905 61 255 1.7 7.0 0.00 0.00 0.00 91 1017.3
20260507132400 61 277 2.6 7.8 0.00 0.00 0.00 91 1017.6
20260507131857 61 289 3.5 6.1 0.00 0.00 0.00 92 1017.4
20260507131355 61 262 1.7 5.2 0.00 0.00 0.00 91 1017.6
20260507130851 62 319 2.6 5.2 0.00 0.00 0.00 91 1017.7
20260507130348 62 22 3.5 6.1 0.00 0.00 0.00 91 1017.5
20260507125848 62 257 0.9 3.5 0.00 0.00 0.00 91 1017.5
20260507125344 62 358 2.6 7.8 0.00 0.00 0.00 92 1017.5
20260507124842 62 289 1.7 3.5 0.00 0.00 0.00 92 1017.7
20260507124338 62 234 0.9 5.2 0.00 0.00 0.00 92 1017.5
20260507123837 62 20 1.7 5.2 0.00 0.00 0.00 92 1017.2
20260507123333 62 278 2.6 3.5 0.00 0.00 0.00 92 1017.1
20260507122830 62 272 0.9 7.8 0.00 0.00 0.00 92 1016.8
20260507122325 62 244 0.9 3.5 0.00 0.00 0.00 92 1016.9
20260507121822 62 253 0.9 7.0 0.00 0.00 0.00 92 1016.5
20260507121317 62 334 2.6 3.5 0.00 0.00 0.00 92 1016.4
20260507120814 63 14 3.5 7.0 0.00 0.00 0.00 91 1016.1
20260507120310 63 7 2.6 3.5 0.00 0.00 0.00 91 1016.1
20260507115807 63 296 1.7 5.2 0.00 0.00 0.00 91 1016.0
20260507115306 63 1 1.7 3.5 0.00 0.00 0.00 91 1015.9
20260507114758 63 357 3.5 6.1 0.00 0.00 0.00 91 1015.9
20260507114256 63 288 1.7 3.5 0.00 0.00 0.00 91 1015.8
20260507113753 63 311 3.5 7.0 0.00 0.00 0.00 91 1015.8
20260507113249 63 12 5.2 7.8 0.00 0.00 0.00 91 1016.1
20260507112748 63 327 3.5 5.2 0.00 0.00 0.00 91 1016.1
20260507112244 63 313 3.5 7.8 0.00 0.00 0.00 91 1015.8
20260507111742 63 287 5.2 7.0 0.00 0.00 0.00 91 1015.7
20260507111238 63 347 2.6 3.5 0.00 0.00 0.00 91 1015.9
20260507110734 63 316 1.7 7.8 0.00 0.00 0.00 91 1015.3
20260507110231 64 310 2.6 3.5 0.00 0.00 0.00 91 1015.6
20260507105728 64 330 4.3 6.1 0.00 0.00 0.00 92 1015.4
20260507105224 64 245 0.9 3.5 0.00 0.00 0.00 92 1015.3
20260507104722 64 332 2.6 2.6 0.00 0.00 0.00 92 1015.0
20260507104218 64 235 0.0 1.7 0.00 0.00 0.00 92 1015.3
20260507103714 64 56 1.7 2.6 0.00 0.00 0.00 92 1015.1
20260507103210 64 263 0.0 1.7 0.00 0.00 0.00 92 1015.0
20260507102707 64 245 0.0 1.7 0.00 0.00 0.00 92 1015.2
20260507102204 64 279 2.6 3.5 0.00 0.00 0.00 92 1014.7
20260507101659 64 35 1.7 3.5 0.00 0.00 0.00 92 1014.9
20260507101155 64 24 2.6 5.2 0.00 0.00 0.00 92 1014.8
20260507100653 64 300 2.6 5.2 0.00 0.00 0.00 92 1014.5
20260507100151 64 278 1.7 1.7 0.00 0.00 0.00 92 1014.9
20260507095648 64 179 1.7 1.7 0.00 0.00 0.00 92 1014.7
20260507095145 64 350 2.6 3.5 0.00 0.00 0.00 92 1014.6
20260507094641 64 231 0.0 2.6 0.00 0.00 0.00 92 1014.8
20260507094138 64 11 1.7 7.0 0.00 0.00 0.00 92 1014.3
20260507093635 64 307 1.7 6.1 0.00 0.00 0.00 92 1014.3
20260507093134 64 234 2.6 3.5 0.00 0.00 0.00 92 1014.3
20260507092631 64 227 1.7 6.1 0.00 0.00 0.00 92 1014.2
20260507092127 64 11 3.5 5.2 0.00 0.00 0.00 92 1014.4
20260507091624 64 288 0.9 3.5 0.00 0.00 0.00 92 1014.3
20260507091120 64 322 2.6 5.2 0.00 0.00 0.00 92 1014.2
20260507090616 64 280 1.7 3.5 0.00 0.00 0.00 92 1014.2
20260507090113 64 346 3.5 6.1 0.00 0.00 0.00 92 1014.3
20260507085610 64 307 1.7 2.6 0.00 0.00 0.00 92 1014.2
20260507085106 64 333 4.3 6.1 0.00 0.00 0.00 92 1014.2
20260507084603 64 10 2.6 2.6 0.00 0.00 0.00 92 1014.3
20260507084100 64 243 0.9 1.7 0.00 0.00 0.00 92 1014.2
20260507083556 64 275 3.5 5.2 0.00 0.00 0.00 92 1014.2
20260507083054 64 256 1.7 3.5 0.00 0.00 0.00 92 1014.2
20260507082549 64 359 3.5 5.2 0.00 0.00 0.00 92 1014.3
20260507082046 64 255 0.9 2.6 0.00 0.00 0.00 92 1014.4
20260507081542 64 321 1.7 3.5 0.00 0.00 0.00 92 1014.0
20260507081040 64 332 1.7 5.2 0.00 0.00 0.00 92 1014.1
20260507080535 64 259 1.7 3.5 0.00 0.00 0.00 91 1014.5
20260507080032 64 6 2.6 7.0 0.00 0.00 0.00 91 1014.5
20260507075527 64 334 3.5 5.2 0.00 0.00 0.00 91 1014.1
20260507075024 64 321 1.7 6.1 0.00 0.00 0.00 91 1014.3
20260507074520 64 348 3.5 5.2 0.00 0.00 0.00 91 1014.4
20260507074020 64 293 1.7 2.6 0.00 0.00 0.00 91 1014.6
20260507073515 64 321 2.6 3.5 0.00 0.00 0.00 91 1014.6
20260507073012 64 257 0.9 1.7 0.00 0.00 0.00 91 1015.0
20260507072509 64 350 3.5 5.2 0.00 0.00 0.00 90 1014.6
20260507072006 65 258 0.9 2.6 0.00 0.00 0.00 90 1014.5
20260507071504 65 11 3.5 5.2 0.00 0.00 0.00 90 1014.6
20260507071000 65 204 1.7 3.5 0.00 0.00 0.00 90 1014.2
20260507070457 65 351 1.7 5.2 0.00 0.00 0.00 90 1014.8
20260507065954 65 247 1.7 2.6 0.00 0.00 0.00 89 1014.8
20260507065451 65 252 0.9 6.1 0.00 0.00 0.00 89 1015.0
20260507064948 65 266 1.7 2.6 0.00 0.00 0.00 89 1015.1
20260507064446 65 7 4.3 5.2 0.00 0.00 0.00 89 1015.0
20260507063943 65 249 2.6 3.5 0.00 0.00 0.00 89 1014.9
20260507063440 65 356 1.7 5.2 0.00 0.00 0.00 89 1014.9
20260507062937 65 287 3.5 5.2 0.00 0.00 0.00 88 1015.1
20260507062434 65 246 1.7 2.6 0.00 0.00 0.00 88 1014.6
20260507061932 65 295 1.7 7.8 0.00 0.00 0.00 88 1014.5
20260507061429 65 334 2.6 5.2 0.00 0.00 0.00 88 1015.0
20260507060928 65 242 0.9 2.6 0.00 0.00 0.00 88 1014.8